Iowa City, IA

8:03 AM CST on November 24, 2017 (GMT -0600)
Iowa City Municipal

Weather History for KIOW - April, 2013

Change the Weather History Date:

Saturday, April 27, 2013

  Actual Average Record
Temperature  
Mean Temperature 52 °F 55 °F  
Max Temperature 63 °F 65 °F 86 °F (1981)
Min Temperature 41 °F 44 °F 29 °F (1953)
Degree Days  
Heating Degree Days 13 11  
Month to date heating degree days 516 397  
Since 1 July heating degree days 6256 6164  
Cooling Degree Days 0 0  
Month to date cooling degree days 0 0  
Year to date cooling degree days 0 0  
Growing Degree Days 2 (Base 50)    
Moisture  
Dew Point 45 °F    
Average Humidity 74    
Maximum Humidity 96    
Minimum Humidity 52    
Precipitation  
Precipitation 0.00 in 0.17 in 1.71 in (2014)
Month to date precipitation 8.45 3.00  
Year to date precipitation 13.33 7.38  
Sea Level Pressure  
Sea Level Pressure 30.15 in    
Wind  
Wind Speed 4 mph (SSE)    
Max Wind Speed 17 mph    
Max Gust Speed 23 mph    
Visibility 10 miles    
Events      
T = Trace of Precipitation, MM = Missing Value Source: NWS Daily Summary

Daily Weather History Graph

Daily Weather History Graph

Search for Another Location

Airport or City:

Trip Planner

Search our weather history database for the weather conditions in past years. The results will help you decide how hot, cold, wet, or windy it might be!

Date:

Astronomy

Apr. 27, 2013 Rise Set
Actual Time 6:07 AM CDT 8:00 PM CDT
Civil Twilight 5:38 AM CDT 8:30 PM CDT
Nautical Twilight 5:01 AM CDT 9:06 PM CDT
Astronomical Twilight 4:22 AM CDT 9:46 PM CDT
Moon 10:31 PM CDT (4/27) 7:25 AM CDT (4/27)
Length of Visible Light 14h 52m
Length of Day
13h 52m
Waning Gibbous, 95% of the Moon is Illuminated
Apr 27
Waning Gibbous
May 2
Last Quarter
May 9
New
May 17
First Quarter
May 24
Full

Hourly Weather History & Observations

Time (CDT) Temp. Dew Point Humidity Pressure Visibility Wind Dir Wind Speed Gust Speed Precip Events Conditions
12:52 AM 53.1 °F 46.0 °F 77% 30.24 in 10.0 mi South 8.1 mph - N/A   Partly Cloudy
1:52 AM 51.1 °F 45.0 °F 80% 30.25 in 10.0 mi Calm Calm - N/A   Mostly Cloudy
2:52 AM 46.0 °F 43.0 °F 89% 30.24 in 10.0 mi Calm Calm - N/A   Clear
3:52 AM 44.1 °F 41.0 °F 89% 30.24 in 10.0 mi Calm Calm - N/A   Clear
4:52 AM 43.0 °F 41.0 °F 93% 30.23 in 10.0 mi Calm Calm - N/A   Clear
5:52 AM 41.0 °F 39.9 °F 96% 30.22 in 10.0 mi Calm Calm - N/A   Clear
6:52 AM 43.0 °F 41.0 °F 93% 30.22 in 10.0 mi Calm Calm - N/A   Clear
7:52 AM 46.9 °F 44.1 °F 90% 30.22 in 10.0 mi ESE 3.5 mph - N/A   Clear
8:52 AM 51.1 °F 46.0 °F 83% 30.21 in 10.0 mi SSE 3.5 mph - N/A   Clear
9:52 AM 55.0 °F 46.9 °F 74% 30.19 in 10.0 mi SE 3.5 mph - N/A   Clear
10:52 AM 57.9 °F 46.9 °F 67% 30.19 in 10.0 mi SSE 11.5 mph 16.1 mph N/A   Mostly Cloudy
10:59 AM 57.2 °F 46.4 °F 67% 30.18 in 10.0 mi SSE 12.7 mph - N/A   Mostly Cloudy
11:52 AM 62.1 °F 46.9 °F 58% 30.18 in 10.0 mi SSE 11.5 mph 16.1 mph N/A   Partly Cloudy
12:52 PM 62.1 °F 46.0 °F 56% 30.16 in 10.0 mi SSE 12.7 mph - N/A   Scattered Clouds
1:52 PM 61.0 °F 46.0 °F 58% 30.14 in 10.0 mi South 12.7 mph 20.7 mph N/A   Overcast
2:52 PM 62.1 °F 46.0 °F 56% 30.12 in 10.0 mi Variable 4.6 mph - N/A   Mostly Cloudy
3:52 PM 61.0 °F 45.0 °F 56% 30.10 in 10.0 mi South 4.6 mph - N/A   Overcast
4:52 PM 62.1 °F 45.0 °F 53% 30.08 in 10.0 mi SSE 6.9 mph - N/A   Overcast
5:52 PM 62.1 °F 45.0 °F 53% 30.06 in 10.0 mi SE 6.9 mph - N/A   Overcast
6:52 PM 61.0 °F 45.0 °F 56% 30.05 in 10.0 mi SE 6.9 mph - N/A   Overcast
7:52 PM 59.0 °F 46.0 °F 62% 30.04 in 10.0 mi SSE 4.6 mph - N/A   Overcast
8:52 PM 59.0 °F 46.0 °F 62% 30.03 in 10.0 mi Calm Calm - N/A   Overcast
9:52 PM 57.0 °F 46.0 °F 67% 30.03 in 10.0 mi Calm Calm - N/A   Overcast
10:52 PM 57.0 °F 46.9 °F 69% 30.01 in 10.0 mi Calm Calm - N/A   Overcast
11:52 PM 55.0 °F 46.9 °F 74% 30.00 in 10.0 mi SSW 3.5 mph - N/A   Overcast